Date,TemperatureHighF,TemperatureAvgF,TemperatureLowF,DewpointHighF,DewpointAvgF,DewpointLowF,HumidityHigh,HumidityAvg,HumidityLow,PressureMaxIn,PressureMinIn,WindSpeedMaxMPH,WindSpeedAvgMPH,GustSpeedMaxMPH,PrecipitationSumIn
2014-1-1,35.2,27.3,15.8,22.2,16.6,9.7,84,64,53,30.35,30.16,5,1,0,0.00
2014-1-2,31.5,25.6,16.7,23.3,19.8,13.8,90,79,67,30.15,29.59,9,4,0,0.00
2014-1-3,19.6,12.9,4.8,13.3,7.0,-2.0,88,77,65,30.41,29.55,10,4,0,0.00
2014-1-4,28.6,13.0,1.0,10.4,3.7,-3.0,85,68,40,30.47,30.24,5,1,0,0.00
2014-1-5,34.9,24.6,9.0,34.6,22.7,5.7,99,92,84,30.24,29.66,3,0,0,0.29
2014-1-6,56.3,40.3,14.0,56.0,34.4,-5.3,99,80,41,29.69,29.29,13,4,0,0.73
2014-1-7,12.9,7.0,2.1,-4.9,-9.0,-13.8,54,47,39,30.33,29.71,18,6,0,0.00
2014-1-8,22.5,14.1,6.3,5.7,0.3,-5.5,65,54,43,30.50,30.33,9,2,0,0.00
2014-1-9,33.1,22.4,14.4,15.3,10.4,5.9,77,61,42,30.59,30.43,5,1,0,0.00
2014-1-10,33.6,33.4,33.4,32.6,31.7,30.2,96,93,88,30.28,30.25,2,0,0,0.06
2014-1-11,61.3,56.4,48.2,61.0,55.7,47.9,99,98,91,29.76,29.24,5,2,0,0.75
2014-1-12,52.5,42.1,30.7,51.4,32.5,25.0,96,69,58,30.00,29.33,9,3,0,0.01
2014-1-13,54.9,41.7,25.0,41.7,33.0,22.6,92,72,56,30.05,29.80,8,1,0,0.00
2014-1-14,47.1,42.4,36.1,46.6,41.0,32.5,99,95,82,29.81,29.58,4,0,0,0.37
2014-1-15,49.6,38.0,30.9,41.7,36.2,30.7,99,94,73,29.93,29.77,7,1,0,0.01
2014-1-16,41.7,38.2,28.9,38.9,32.9,27.4,97,81,75,29.87,29.75,5,1,0,0.00
2014-1-17,45.5,32.4,20.7,31.8,26.2,18.2,96,79,56,29.91,29.79,4,0,0,0.00
2014-1-18,41.7,33.5,24.6,33.4,26.9,15.2,94,77,61,29.79,29.59,8,2,0,0.21
2014-1-19,35.6,29.1,21.0,24.5,18.9,13.1,71,65,55,29.77,29.57,11,4,0,0.00
2014-1-20,47.3,37.8,31.5,29.7,26.4,20.4,73,64,48,29.81,29.49,9,3,0,0.00
2014-1-21,30.9,19.1,10.4,19.8,11.8,4.6,86,74,51,29.91,29.74,9,4,0,0.00
2014-1-22,19.9,10.8,3.2,4.7,-1.1,-4.5,78,59,39,29.93,29.71,11,4,0,0.00
2014-1-23,21.4,11.6,1.9,6.0,0.8,-5.1,82,62,48,30.23,29.92,8,2,0,0.00
2014-1-24,20.7,12.1,1.4,3.4,0.0,-3.9,80,59,39,30.33,30.01,7,2,0,0.00
2014-1-25,28.8,20.7,15.1,20.9,12.6,3.6,91,71,51,30.00,29.36,14,2,0,0.00
2014-1-26,24.4,20.7,14.5,16.3,8.2,0.2,89,59,40,29.85,29.39,10,2,0,0.00
2014-1-27,46.2,29.0,19.9,30.2,15.1,0.1,79,57,35,30.02,29.52,12,3,0,0.18
2014-1-28,24.3,16.4,11.8,3.1,-2.4,-8.5,64,44,24,30.31,30.02,6,2,0,0.00
2014-1-29,23.2,16.1,9.7,7.3,1.6,-2.3,79,55,33,30.23,30.03,8,2,0,0.00
2014-1-30,29.8,16.4,3.9,8.5,3.4,-2.5,76,58,35,30.39,30.14,5,1,0,0.00
2014-1-31,42.4,29.5,18.1,20.7,15.4,7.3,70,57,35,30.16,30.02,7,1,0,0.00
2014-2-1,45.9,34.2,27.1,30.5,23.9,19.2,93,68,42,30.25,29.94,6,1,0,0.00
2014-2-2,57.0,39.3,24.8,40.2,31.5,23.3,96,76,49,30.00,29.82,6,1,0,0.00
2014-2-3,39.9,33.7,30.0,32.5,30.8,28.0,96,89,72,30.19,30.00,4,1,0,0.12
2014-2-4,37.4,27.1,17.2,26.4,21.6,14.5,90,80,60,30.40,30.16,4,1,0,0.29
2014-2-5,34.3,31.9,28.8,32.8,30.2,24.6,97,93,79,30.16,29.55,8,2,0,0.47
2014-2-6,31.8,24.8,19.2,24.5,17.9,13.4,86,75,59,30.22,29.91,8,2,0,0.08
2014-2-7,33.3,26.1,18.0,20.9,17.1,12.8,86,69,55,30.26,30.14,7,2,0,0.02
2014-2-8,33.6,23.2,12.6,15.4,10.5,4.6,82,60,34,30.27,30.07,5,1,0,0.00
2014-2-9,34.2,23.8,14.4,21.3,13.0,6.6,88,65,40,30.12,29.92,5,1,0,0.00
2014-2-10,35.1,23.0,10.9,19.0,11.6,5.7,88,63,38,30.21,29.92,6,2,0,0.01
2014-2-11,30.6,17.8,7.5,8.5,5.6,2.8,85,60,38,30.41,30.21,7,2,0,0.00
2014-2-12,28.4,18.3,5.4,14.3,7.3,-0.5,81,62,41,30.50,30.22,5,2,0,0.01
2014-2-13,33.8,29.7,21.4,32.8,28.2,14.2,98,94,70,30.21,28.94,16,5,0,1.26
2014-2-14,42.1,34.0,24.4,32.0,27.6,21.1,97,79,58,29.69,28.95,14,3,0,0.53
2014-2-15,38.3,31.2,24.6,30.2,26.7,16.4,95,84,63,29.70,29.47,8,3,0,0.00
2014-2-16,33.3,24.8,18.3,16.6,12.7,9.9,73,60,44,30.04,29.70,7,4,0,0.01
2014-2-17,34.9,21.1,14.9,13.8,6.3,2.7,77,55,27,30.31,30.05,6,2,0,0.03
2014-2-18,43.2,30.7,21.9,33.5,24.2,14.2,93,77,62,30.24,29.87,8,1,0,0.22
2014-2-19,48.6,34.5,21.6,43.0,31.1,19.2,94,87,70,30.03,29.59,7,1,0,0.29
2014-2-20,53.1,39.4,24.8,37.1,29.7,22.6,97,70,38,30.18,29.91,6,1,0,0.00
2014-2-21,43.9,37.9,30.0,43.6,37.3,29.5,99,98,95,29.92,29.56,5,1,0,0.22
2014-2-22,56.3,39.5,25.2,33.5,26.7,23.2,98,66,28,29.97,29.84,9,2,0,0.00
2014-2-23,57.4,42.3,26.8,34.1,29.0,24.5,95,63,36,29.94,29.76,7,1,0,0.00
2014-2-24,41.5,35.4,25.5,31.7,18.3,9.5,71,51,33,30.01,29.72,14,4,0,0.00
2014-2-25,35.1,26.7,18.1,18.0,13.2,8.6,74,57,44,30.01,29.84,10,2,0,0.00
2014-2-26,34.7,24.8,12.9,23.7,10.7,-1.7,80,57,28,29.89,29.74,10,2,0,0.04
2014-2-27,34.2,20.5,7.7,14.6,5.2,-10.9,85,54,31,30.05,29.53,10,3,0,0.00
2014-2-28,27.1,15.7,5.9,3.0,-4.1,-11.8,72,42,27,30.36,30.06,7,2,0,0.00
2014-3-1,42.4,26.0,8.4,17.6,11.3,3.9,83,56,30,30.36,30.08,5,1,0,0.00
2014-3-2,47.8,35.2,26.2,29.1,23.4,16.6,84,63,41,30.07,29.89,5,1,0,0.00
2014-3-3,31.3,21.5,14.2,18.0,5.7,-1.0,79,51,41,30.27,29.93,7,3,0,0.00
2014-3-4,34.5,21.7,10.0,10.8,2.5,-2.2,59,44,26,30.35,30.18,4,1,0,0.00
2014-3-5,43.0,30.5,19.4,15.3,11.5,7.1,72,47,26,30.36,30.12,8,2,0,0.00
2014-3-6,33.3,24.3,14.7,14.6,8.0,0.0,67,50,32,30.56,30.36,9,3,0,0.00
2014-3-7,41.0,33.1,25.2,29.4,22.6,14.7,78,65,56,30.40,29.83,7,3,0,0.00
2014-3-8,59.0,45.5,31.5,33.8,31.1,27.5,93,60,34,29.83,29.68,9,2,0,0.00
2014-3-9,46.9,40.7,36.0,30.3,21.6,13.1,73,48,26,29.95,29.81,7,3,0,0.00
2014-3-10,54.3,43.1,35.4,32.4,25.9,18.7,76,51,38,29.86,29.52,6,2,0,0.00
2014-3-11,67.1,50.1,33.8,41.5,36.0,29.1,84,61,36,29.60,29.47,6,1,0,0.00
2014-3-12,59.5,48.9,33.4,55.0,42.7,26.7,98,80,66,29.58,28.91,9,2,0,0.26
2014-3-13,32.5,24.5,17.8,25.5,5.9,-0.7,75,46,26,30.02,29.10,17,6,0,0.00
2014-3-14,50.2,32.2,13.5,26.5,12.7,-0.1,71,46,25,30.15,29.81,7,2,0,0.00
2014-3-15,61.0,49.8,38.8,33.9,28.1,24.6,65,44,26,29.92,29.66,17,3,0,0.00
2014-3-16,41.9,35.3,28.6,25.1,12.2,5.3,57,39,27,30.12,29.92,8,3,0,0.00
2014-3-17,38.3,29.6,22.8,9.4,5.0,-4.6,42,35,26,30.05,29.95,9,3,0,0.00
2014-3-18,45.0,32.9,23.0,25.2,14.2,4.9,85,48,25,30.21,30.03,7,2,0,0.00
2014-3-19,43.3,36.8,26.1,43.0,31.9,22.5,99,83,67,30.22,29.73,10,3,0,0.73
2014-3-20,56.3,46.2,39.9,42.9,33.8,23.3,99,67,35,29.84,29.65,11,4,0,0.03
2014-3-21,55.0,43.2,31.3,24.8,22.3,20.2,70,45,27,29.97,29.83,9,3,0,0.00
2014-3-22,66.6,48.6,28.2,40.2,31.2,21.9,81,55,24,29.96,29.67,9,3,0,0.00
2014-3-23,47.5,38.6,26.6,27.0,19.0,4.9,69,46,26,30.06,29.89,8,3,0,0.00
2014-3-24,38.3,27.8,19.0,8.8,5.9,4.2,59,40,26,30.18,30.03,13,3,0,0.00
2014-3-25,44.1,30.9,16.5,21.7,14.5,7.7,77,52,29,30.09,29.77,7,2,0,0.00
2014-3-26,39.2,32.6,23.7,20.6,11.3,3.5,61,42,27,30.17,29.66,17,5,0,0.00
2014-3-27,48.2,33.7,17.1,20.2,10.0,5.9,63,39,20,30.35,30.17,6,2,0,0.00
2014-3-28,62.8,47.4,30.6,51.4,38.3,20.0,91,71,54,30.18,29.87,9,1,0,0.04
2014-3-29,51.8,46.6,44.1,49.3,44.2,41.1,99,92,75,30.10,29.58,9,3,0,2.25
2014-3-30,47.5,44.8,41.0,46.5,43.4,39.4,99,95,87,29.59,29.38,11,5,0,0.91
2014-3-31,57.9,45.2,35.8,39.4,35.5,29.9,96,71,44,30.01,29.59,11,4,0,0.11
2014-4-1,66.0,46.8,30.0,37.7,32.5,26.2,87,60,35,30.06,29.88,6,1,0,0.00
2014-4-2,59.4,43.6,34.2,46.8,39.0,31.4,96,84,63,30.07,29.96,3,0,0,0.01
2014-4-3,70.5,53.4,37.0,42.7,32.4,20.5,99,55,16,30.06,29.90,5,2,0,0.04
2014-4-4,45.1,41.6,39.9,42.6,39.9,38.2,99,94,87,29.99,29.67,17,4,0,0.46
2014-4-5,58.1,47.1,39.2,44.9,35.2,24.8,99,68,38,30.00,29.64,9,3,0,0.00
2014-4-6,67.6,47.1,31.5,31.0,24.8,21.1,70,46,18,30.14,30.01,6,2,0,0.00
2014-4-7,53.8,43.2,31.6,47.7,37.1,29.0,99,81,46,30.14,29.60,10,2,0,0.58
2014-4-8,67.5,54.2,45.0,58.6,45.4,35.1,99,76,44,29.59,29.31,14,3,0,0.35
2014-4-9,65.7,52.8,37.6,39.6,32.1,24.2,85,49,25,29.94,29.54,9,3,0,0.00
2014-4-10,69.6,52.6,28.2,36.2,29.1,20.7,81,44,26,30.14,29.94,10,2,0,0.00
2014-4-11,80.2,61.9,43.9,52.9,43.5,32.5,86,53,29,29.95,29.83,12,2,0,0.00
2014-4-12,77.5,62.0,46.8,52.3,41.1,31.7,91,53,20,30.15,29.92,6,2,0,0.00
2014-4-13,85.8,66.1,44.4,59.1,49.6,32.5,77,58,35,30.12,29.86,9,2,0,0.00
2014-4-14,82.2,70.1,61.2,62.4,57.3,54.5,83,66,43,29.93,29.74,14,4,0,0.00
2014-4-15,66.0,57.6,33.4,65.0,55.5,33.1,99,93,76,29.84,29.41,11,4,0,0.73
2014-4-16,51.4,39.3,28.2,33.0,23.0,17.3,99,56,28,30.49,29.84,10,4,0,0.15
2014-4-17,50.9,41.3,32.7,34.2,26.9,17.1,85,57,39,30.66,30.50,11,3,0,0.00
2014-4-18,55.6,43.2,32.7,34.4,31.6,29.0,86,65,42,30.54,30.19,7,2,0,0.00
2014-4-19,70.0,53.8,33.6,42.0,30.4,21.8,96,49,18,30.26,30.13,8,2,0,0.00
2014-4-20,58.8,50.1,36.3,34.6,29.6,25.8,74,47,32,30.41,30.26,9,3,0,0.00
2014-4-21,71.8,51.7,29.3,44.5,33.3,24.5,92,56,17,30.25,29.79,7,1,0,0.00
2014-4-22,79.2,58.6,40.8,55.3,48.0,39.9,99,72,35,29.79,29.41,6,2,0,0.00
2014-4-23,64.6,54.0,42.6,48.1,38.6,30.5,73,57,39,29.77,29.41,12,5,0,0.00
2014-4-24,65.3,52.3,40.1,31.1,21.0,14.4,64,33,15,29.94,29.76,12,4,0,0.00
2014-4-25,65.1,53.3,36.0,41.8,28.3,20.1,77,40,22,29.96,29.68,10,3,0,0.00
2014-4-26,72.1,54.7,46.2,50.6,46.4,42.3,99,78,38,29.80,29.59,9,2,0,0.66
2014-4-27,61.3,52.9,40.6,45.5,37.3,35.0,95,57,40,30.03,29.80,8,3,0,0.00
2014-4-28,70.5,55.2,37.6,41.3,37.1,33.4,90,53,27,30.04,29.91,7,2,0,0.00
2014-4-29,52.7,46.5,42.4,42.7,39.6,37.7,89,77,63,30.32,30.01,14,6,0,0.08
2014-4-30,52.0,45.8,41.0,51.7,45.1,38.6,99,98,84,30.31,29.86,12,4,0,5.86
2014-5-1,81.5,65.2,50.9,64.6,56.4,50.6,99,77,40,29.85,29.57,7,2,0,0.30
2014-5-2,72.3,62.6,49.1,50.2,43.2,37.7,76,51,33,29.76,29.61,9,2,0,0.00
2014-5-3,75.4,59.4,43.7,52.8,44.5,38.0,99,62,34,29.79,29.63,5,1,0,0.08
2014-5-4,67.6,56.5,47.5,51.3,41.8,28.7,99,63,34,29.71,29.57,14,3,0,0.01
2014-5-5,72.1,59.6,47.1,40.0,33.0,22.9,67,39,18,29.83,29.71,10,3,0,0.00
2014-5-6,74.1,59.7,42.6,39.2,33.5,27.5,65,40,21,29.98,29.78,8,2,0,0.00
2014-5-7,72.5,59.8,43.5,44.5,36.4,32.1,67,44,25,30.15,29.99,7,2,0,0.00
2014-5-8,61.2,55.8,50.9,58.0,53.8,43.6,99,94,64,30.11,29.99,5,1,0,0.54
2014-5-9,64.0,58.6,55.2,60.8,57.6,54.9,99,97,88,30.09,29.91,5,1,0,0.00
2014-5-10,86.4,67.6,58.3,71.8,62.8,58.0,99,86,52,29.90,29.71,11,2,0,0.33
2014-5-11,84.9,70.4,53.2,63.2,51.6,39.8,99,58,21,29.99,29.77,10,2,0,0.07
2014-5-12,91.8,72.2,51.3,62.6,57.1,49.2,96,63,36,30.03,29.91,7,1,0,0.00
2014-5-13,74.3,62.9,50.5,63.2,52.2,43.7,99,71,42,30.21,29.91,8,3,0,0.00
2014-5-14,73.4,58.9,49.5,59.6,52.2,44.9,99,79,62,30.23,30.14,7,2,0,0.00
2014-5-15,76.5,67.1,58.5,70.6,65.1,58.2,99,94,82,30.15,29.97,7,2,0,0.02
2014-5-16,71.8,66.9,59.2,69.1,65.9,58.9,99,97,87,29.97,29.70,10,3,0,0.82
2014-5-17,72.9,61.6,48.6,58.5,48.3,40.3,99,66,37,30.03,29.76,7,2,0,0.00
2014-5-18,71.4,58.4,42.8,49.1,41.1,33.4,95,56,35,30.12,30.02,6,2,0,0.00
2014-5-19,77.5,60.7,40.6,46.0,39.4,33.3,85,49,24,30.15,29.97,7,2,0,0.00
2014-5-20,82.9,68.9,45.9,48.7,42.0,36.0,81,42,21,30.06,29.87,6,2,0,0.00
2014-5-21,78.6,69.1,60.6,57.6,53.4,48.2,79,58,43,29.92,29.78,6,1,0,0.00
2014-5-22,71.2,64.0,58.5,64.2,60.7,56.9,99,89,77,29.78,29.67,4,1,0,0.10
2014-5-23,76.1,63.2,56.7,63.2,59.4,55.8,99,89,62,29.85,29.73,9,1,0,0.71
2014-5-24,73.9,61.2,52.9,61.8,57.1,52.6,99,88,57,29.99,29.82,9,1,0,0.26
2014-5-25,86.5,68.6,49.8,62.9,52.3,43.3,99,63,23,30.02,29.91,6,1,0,0.01
2014-5-26,90.0,74.0,55.2,58.5,53.7,49.3,82,53,29,29.97,29.79,7,2,0,0.00
2014-5-27,92.3,77.6,62.1,66.6,61.4,54.0,77,59,38,29.81,29.66,8,2,0,0.00
2014-5-28,70.0,61.1,55.0,63.8,54.6,46.5,90,79,67,30.07,29.69,9,3,0,0.00
2014-5-29,70.0,59.2,52.2,51.6,46.0,43.2,75,62,48,30.13,30.06,6,3,0,0.00
2014-5-30,84.4,67.1,51.6,56.3,50.1,42.9,84,57,31,30.07,29.87,5,1,0,0.02
2014-5-31,78.1,65.1,52.5,52.9,49.1,43.9,84,59,33,30.20,29.98,11,3,0,0.00
2014-6-1,81.3,65.6,46.0,54.4,44.0,37.3,97,52,22,30.28,30.15,6,1,0,0.00
2014-6-2,86.7,69.6,47.1,59.8,51.7,40.7,87,56,36,30.18,29.91,9,2,0,0.00
2014-6-3,96.4,75.4,60.8,72.1,64.0,53.2,99,71,39,29.94,29.69,7,1,0,0.77
2014-6-4,90.3,74.9,63.0,69.1,63.0,53.8,99,70,40,29.75,29.62,6,1,0,0.01
2014-6-5,81.5,67.9,62.1,64.3,59.1,50.4,99,76,47,29.70,29.54,10,2,0,0.63
2014-6-6,82.0,68.8,56.7,56.2,52.0,47.9,73,56,38,29.85,29.69,9,2,0,0.00
2014-6-7,92.5,72.5,54.5,58.5,54.1,49.0,84,55,28,29.91,29.80,6,1,0,0.00
2014-6-8,91.6,74.9,56.3,66.6,57.7,53.5,98,59,32,29.86,29.74,6,1,0,0.00
2014-6-9,72.9,66.9,61.9,68.5,63.4,54.1,99,90,59,29.86,29.79,5,1,0,2.69
2014-6-10,83.8,72.3,64.8,72.3,67.5,64.1,99,86,68,29.88,29.81,6,1,0,0.00
2014-6-11,72.0,65.7,61.3,67.7,61.9,57.5,99,88,72,30.02,29.88,7,2,0,0.03
2014-6-12,72.1,65.3,60.4,69.0,64.3,59.2,99,97,89,29.99,29.82,8,2,0,0.05
2014-6-13,87.4,71.1,65.8,75.5,68.7,65.5,99,93,68,29.82,29.59,7,2,0,1.95
2014-6-14,80.4,69.6,57.7,68.4,59.2,47.3,99,72,45,29.94,29.67,8,2,0,0.00
2014-6-15,85.8,69.4,52.5,58.9,54.3,48.4,91,62,37,30.02,29.93,6,2,0,0.00
2014-6-16,86.4,73.1,54.5,62.9,58.9,53.4,97,64,41,30.06,29.94,6,1,0,0.00
2014-6-17,97.0,81.7,67.1,72.1,65.6,58.3,80,60,39,29.97,29.77,5,1,0,0.00
2014-6-18,96.6,84.9,73.4,69.5,65.3,60.3,74,53,35,29.86,29.70,7,2,0,0.00
2014-6-19,79.2,73.2,65.3,67.9,64.8,61.0,95,76,64,29.91,29.82,9,2,0,0.03
2014-6-20,83.8,73.1,58.5,63.0,50.5,45.8,93,48,29,29.92,29.78,6,2,0,0.00
2014-6-21,82.9,71.3,59.2,53.1,50.0,45.8,70,48,32,29.88,29.77,7,2,0,0.00
2014-6-22,83.8,70.9,58.1,60.6,55.0,51.1,84,59,37,29.93,29.82,6,1,0,0.00
2014-6-23,88.0,73.7,55.9,64.1,57.8,51.8,95,60,40,30.04,29.93,5,1,0,0.00
2014-6-24,89.4,75.7,59.2,63.6,57.9,51.5,90,56,37,30.06,29.89,7,2,0,0.00
2014-6-25,93.2,78.8,66.2,73.3,68.3,57.9,87,71,52,29.93,29.71,8,2,0,0.01
2014-6-26,90.3,79.1,68.0,73.4,68.1,62.4,98,72,49,29.86,29.70,6,2,0,0.34
2014-6-27,88.0,76.1,65.1,67.0,62.3,54.5,80,63,47,30.13,29.87,6,2,0,0.00
2014-6-28,91.8,75.4,57.4,62.8,57.8,53.9,96,59,29,30.18,30.10,6,1,0,0.00
2014-6-29,91.8,75.5,59.4,66.9,59.3,51.7,91,60,38,30.17,30.01,5,1,0,0.00
2014-6-30,97.3,79.2,59.7,69.4,61.3,51.3,87,57,31,30.03,29.83,7,1,0,0.00
2014-7-1,100.6,83.9,67.3,74.4,68.3,60.6,90,62,41,29.87,29.69,8,2,0,0.00
2014-7-2,102.6,83.4,71.4,78.1,71.7,65.6,98,71,44,29.84,29.69,7,2,0,2.64
2014-7-3,98.6,80.0,68.9,80.2,73.6,68.0,99,83,53,29.90,29.74,8,1,0,2.18
2014-7-4,77.5,70.1,64.6,69.7,63.4,51.9,99,81,56,29.94,29.81,10,2,0,0.04
2014-7-5,91.4,74.5,57.9,56.6,51.9,49.0,73,48,26,30.07,29.94,11,2,0,0.00
2014-7-6,95.0,77.0,57.4,59.1,55.5,51.1,81,51,27,30.01,29.83,10,2,0,0.00
2014-7-7,98.4,83.2,70.0,69.3,64.2,58.8,74,55,37,29.84,29.62,11,3,0,0.00
2014-7-8,98.4,83.2,68.7,75.3,68.7,63.8,96,65,38,29.76,29.53,9,2,0,0.26
2014-7-9,92.8,80.1,67.6,70.1,65.4,62.8,91,64,40,29.85,29.67,10,2,0,0.00
2014-7-10,91.9,76.5,67.5,66.5,63.3,60.4,83,65,39,30.04,29.85,5,2,0,0.02
2014-7-11,94.8,77.6,67.1,63.5,60.3,55.4,83,59,31,30.13,30.02,5,2,0,0.00
2014-7-12,99.5,79.9,62.8,68.4,62.4,58.2,95,60,29,30.13,30.01,6,1,0,0.00
2014-7-13,97.3,80.2,69.3,75.5,68.8,59.6,85,69,50,30.03,29.76,7,2,0,0.27
2014-7-14,98.2,77.8,70.2,76.6,71.8,67.7,97,84,47,29.85,29.70,6,1,0,1.18
2014-7-15,96.4,77.6,72.3,78.9,72.8,69.4,97,86,55,29.72,29.61,5,1,0,0.44
2014-7-16,93.7,76.2,66.2,70.9,63.2,56.1,97,68,32,29.79,29.64,5,1,0,0.02
2014-7-17,91.9,75.4,61.2,61.0,56.3,51.9,84,55,27,30.00,29.77,8,2,0,0.00
2014-7-18,92.3,75.0,57.7,58.9,53.8,49.4,88,52,25,30.14,30.01,4,1,0,0.00
2014-7-19,83.8,72.5,63.7,61.7,56.5,51.9,78,59,38,30.16,30.07,6,1,0,0.00
2014-7-20,86.2,73.3,64.0,64.5,60.2,54.1,86,65,47,30.08,29.99,6,2,0,0.00
2014-7-21,97.9,77.1,59.7,66.0,61.7,58.3,96,64,31,30.11,30.02,6,1,0,0.00
2014-7-22,98.4,80.5,62.8,70.1,65.2,58.8,93,62,39,30.09,29.93,5,2,0,0.00
2014-7-23,99.5,81.9,66.4,75.3,68.3,59.9,94,66,46,29.95,29.64,8,2,0,0.60
2014-7-24,91.6,76.0,67.8,71.1,62.4,52.9,94,66,38,29.81,29.69,6,2,0,0.01
2014-7-25,94.1,76.6,61.7,57.9,54.9,51.1,72,49,27,29.93,29.81,5,1,0,0.00
2014-7-26,90.3,74.3,62.6,67.3,62.2,56.6,87,68,43,29.91,29.78,6,1,0,0.00
2014-7-27,95.4,79.2,66.6,73.2,67.9,64.5,95,72,41,29.80,29.53,6,1,0,0.07
2014-7-28,89.6,76.0,66.0,71.9,64.4,54.7,95,71,41,29.61,29.40,8,2,0,0.38
2014-7-29,84.6,71.1,59.4,56.9,52.7,49.7,73,55,32,29.88,29.61,6,2,0,0.00
2014-7-30,87.4,70.1,58.1,53.2,52.1,50.7,78,56,30,29.95,29.88,5,1,0,0.00
2014-7-31,94.8,74.3,56.7,62.8,58.1,51.9,92,61,33,30.05,29.94,5,1,0,0.00
2014-8-1,95.7,75.5,63.7,71.1,65.1,59.0,94,72,43,30.11,30.04,5,1,0,0.08
2014-8-2,81.0,73.5,65.1,65.8,62.4,59.3,87,69,60,30.06,29.98,6,2,0,0.00
2014-8-3,83.5,71.1,64.9,67.3,63.5,60.0,95,78,57,30.03,29.92,3,0,0,0.12
2014-8-4,96.6,79.2,67.1,69.1,63.9,60.4,91,62,37,29.97,29.90,6,1,0,0.00
2014-8-5,102.0,82.1,63.0,67.8,62.3,55.5,96,58,22,29.94,29.79,5,1,0,0.00
2014-8-6,93.4,76.8,66.0,64.2,59.5,53.6,79,57,34,29.81,29.72,6,1,0,0.00
2014-8-7,92.1,75.5,59.0,58.5,52.9,48.5,73,48,24,29.92,29.79,6,2,0,0.00
2014-8-8,93.0,74.0,56.3,57.5,52.4,48.3,77,50,26,30.00,29.92,6,1,0,0.00
2014-8-9,97.2,76.4,57.6,60.0,54.2,49.8,83,51,23,30.03,29.95,4,1,0,0.00
2014-8-10,100.2,78.8,58.3,60.8,56.7,53.0,91,52,22,30.04,29.96,5,1,0,0.00
2014-8-11,95.7,77.8,60.8,63.3,58.1,51.4,93,56,24,30.04,29.98,8,2,0,0.00
2014-8-12,82.4,73.1,67.6,68.8,65.4,62.6,91,77,60,29.98,29.73,9,3,0,0.27
2014-8-13,92.8,75.5,67.5,70.0,65.1,55.0,93,73,41,29.73,29.54,19,3,0,0.61
2014-8-14,87.3,72.5,58.1,54.5,51.7,48.6,71,50,30,29.80,29.68,8,2,0,0.00
2014-8-15,81.0,67.4,51.8,52.6,50.1,47.8,89,56,36,29.89,29.79,6,1,0,0.00
2014-8-16,88.7,70.6,54.0,56.9,51.7,49.4,92,56,29,29.92,29.80,7,1,0,0.00
2014-8-17,89.8,73.2,59.4,64.7,55.4,50.3,74,55,36,29.82,29.71,5,1,0,0.00
2014-8-18,89.8,72.5,55.4,58.5,53.6,49.6,88,55,32,29.84,29.71,8,1,0,0.00
2014-8-19,91.8,74.5,60.3,63.8,57.4,49.7,74,57,38,29.84,29.75,6,1,0,0.00
2014-8-20,94.6,76.7,64.0,65.9,59.9,54.8,86,60,31,29.94,29.83,7,1,0,0.00
2014-8-21,91.0,74.9,63.9,66.7,60.9,56.4,92,64,36,29.96,29.88,7,2,0,0.19
2014-8-22,80.6,69.9,63.1,67.5,62.5,57.4,95,79,59,29.96,29.89,5,1,0,0.41
2014-8-23,75.4,68.4,62.2,62.9,58.7,55.7,81,72,63,30.02,29.93,5,1,0,0.00
2014-8-24,87.8,71.4,56.8,61.6,57.8,54.8,95,66,35,30.06,29.99,7,2,0,0.00
2014-8-25,98.6,76.2,55.4,63.8,57.9,53.7,96,60,27,30.08,29.99,7,1,0,0.00
2014-8-26,99.9,78.5,61.3,67.3,61.2,57.2,94,60,31,30.07,29.95,6,1,0,0.00
2014-8-27,101.5,80.9,61.3,67.3,62.8,56.5,95,59,30,29.98,29.73,6,1,0,0.00
2014-8-28,88.7,76.5,61.9,66.1,54.4,45.1,69,48,29,29.97,29.74,7,3,0,0.00
2014-8-29,91.6,70.7,52.2,53.5,49.7,45.0,86,51,25,30.15,29.97,6,1,0,0.00
2014-8-30,88.9,71.3,52.7,61.9,57.0,49.2,93,64,36,30.19,30.04,5,1,0,0.00
2014-8-31,99.5,79.0,68.4,73.2,67.2,60.7,79,69,41,30.05,29.83,7,1,0,0.05
2014-9-1,100.9,83.9,72.3,74.5,69.7,67.3,93,65,38,29.91,29.79,5,1,0,0.00
2014-9-2,100.2,85.0,72.1,75.3,69.7,63.6,96,64,38,29.83,29.68,7,2,0,0.01
2014-9-3,94.5,79.6,66.2,63.7,59.2,56.0,73,52,29,30.01,29.72,10,2,0,0.00
2014-9-4,96.3,77.3,59.0,64.1,59.8,56.3,95,60,27,30.10,29.98,8,1,0,0.00
2014-9-5,94.8,78.0,65.7,74.7,68.6,58.5,93,75,48,30.08,29.90,4,1,0,0.00
2014-9-6,99.1,78.5,66.7,76.0,70.5,61.8,96,79,43,29.91,29.73,7,1,0,0.13
2014-9-7,91.6,72.2,61.2,99.9,58.4,52.0,94,64,28,30.09,29.85,7,2,0,0.00
2014-9-8,81.7,69.3,60.4,60.1,54.0,50.0,70,59,39,30.22,30.09,8,3,0,0.00
2014-9-9,80.1,68.3,61.3,61.4,56.8,50.7,78,67,53,30.18,30.04,7,2,0,0.00
2014-9-10,90.3,73.1,63.0,59.5,57.6,53.9,84,61,35,30.04,29.92,6,2,0,0.00
2014-9-11,88.9,74.1,62.4,70.8,64.9,56.0,90,74,54,29.93,29.71,8,2,0,0.00
2014-9-12,89.2,71.3,56.8,55.3,51.3,47.4,76,52,28,30.09,29.85,7,2,0,0.00
2014-9-13,67.8,62.2,56.8,60.9,54.2,46.7,93,76,62,30.09,29.99,9,2,0,0.21
2014-9-14,82.8,62.2,47.1,54.0,47.5,44.1,94,64,27,30.20,30.08,5,1,0,0.00
2014-9-15,82.9,63.4,47.5,49.0,45.5,42.3,89,58,24,30.17,29.99,5,1,0,0.00
2014-9-16,78.6,61.0,51.8,62.2,52.8,47.4,95,77,48,29.99,29.86,4,1,0,0.50
2014-9-17,83.5,62.9,45.5,54.8,45.9,41.2,97,62,25,29.98,29.86,7,1,0,0.00
2014-9-18,85.3,64.0,45.5,56.0,47.8,43.9,96,62,28,30.01,29.86,4,1,0,0.00
2014-9-19,74.7,61.7,52.2,49.8,46.4,39.4,76,59,36,30.28,30.01,11,3,0,0.00
2014-9-20,83.8,67.1,52.5,61.8,55.2,47.4,88,68,42,30.25,29.96,7,1,0,0.00
2014-9-21,84.4,70.7,63.9,70.0,65.8,62.0,96,85,62,29.96,29.50,3,0,0,0.06
2014-9-22,76.3,65.2,49.8,66.4,50.9,38.5,96,63,32,30.10,29.52,12,2,0,0.01
2014-9-23,83.8,61.1,44.1,46.7,42.0,37.3,83,55,23,30.32,30.10,5,1,0,0.00
2014-9-24,76.3,61.7,47.3,57.1,50.9,45.9,97,70,43,30.47,30.33,7,2,0,0.00
2014-9-25,64.6,60.7,56.7,58.0,54.2,50.6,88,80,64,30.37,30.12,8,3,0,0.52
2014-9-26,86.9,66.4,52.2,56.7,50.6,45.6,90,63,26,30.13,30.05,7,1,0,0.00
2014-9-27,95.9,69.8,50.5,59.3,53.1,49.4,97,64,23,30.14,30.05,5,1,0,0.00
2014-9-28,97.2,72.2,52.5,62.0,56.1,52.0,98,65,25,30.09,29.91,4,0,0,0.00
2014-9-29,87.6,70.2,60.4,62.4,59.0,56.6,91,70,39,29.91,29.79,3,0,0,0.00
2014-9-30,80.8,67.6,60.6,64.8,57.6,52.1,96,72,37,29.89,29.81,6,1,0,0.00
2014-10-1,67.1,63.6,60.8,58.6,56.3,54.2,83,77,72,29.98,29.87,6,2,0,0.00
2014-10-2,73.8,63.8,59.2,57.7,56.3,54.6,94,78,55,30.05,29.97,5,1,0,0.00
2014-10-3,79.0,65.3,57.6,54.9,51.6,47.3,84,64,34,30.02,29.74,7,2,0,0.00
2014-10-4,74.8,63.0,49.5,67.5,55.9,34.0,97,79,50,29.74,29.40,5,2,0,0.68
2014-10-5,67.1,51.2,39.9,38.5,35.2,31.7,92,57,30,29.91,29.61,8,2,0,0.00
2014-10-6,79.7,57.5,36.5,50.8,42.9,35.5,99,65,28,29.99,29.88,8,1,0,0.00
2014-10-7,79.3,66.0,54.7,59.1,52.9,47.3,87,65,40,29.95,29.81,7,2,0,0.04
2014-10-8,78.6,66.4,57.2,62.7,51.9,38.0,96,64,31,29.87,29.69,8,3,0,0.17
2014-10-9,74.3,57.6,42.6,45.6,39.2,36.3,94,55,26,29.98,29.86,11,2,0,0.00
2014-10-10,68.5,55.3,40.6,45.8,40.3,36.1,90,60,36,30.06,29.96,3,0,0,0.00
2014-10-11,56.7,51.6,43.9,52.6,48.4,43.1,98,89,66,30.08,29.94,6,1,0,0.40
2014-10-12,72.9,52.3,38.3,46.4,39.5,31.3,98,70,22,30.23,30.07,6,1,0,0.00
2014-10-13,68.0,56.9,40.8,61.0,51.7,38.7,97,84,62,30.26,30.14,4,0,0,0.05
2014-10-14,83.5,69.5,58.5,69.8,61.9,57.7,98,79,49,30.14,30.00,8,2,0,0.00
2014-10-15,79.3,71.8,67.3,69.1,66.3,62.4,97,83,69,30.00,29.72,7,2,0,0.42
2014-10-16,78.6,67.3,54.7,68.7,61.2,52.7,98,83,49,29.72,29.57,7,2,0,0.51
2014-10-17,77.9,63.5,54.9,56.8,52.9,48.2,96,72,38,29.65,29.56,8,1,0,0.00
2014-10-18,73.4,59.4,49.5,59.0,48.8,40.9,98,71,45,29.63,29.46,6,1,0,0.00
2014-10-19,60.3,51.4,39.2,42.2,33.3,25.9,67,52,28,29.99,29.63,9,2,0,0.00
2014-10-20,67.8,47.5,32.0,40.2,33.6,26.0,87,62,32,30.04,29.86,5,1,0,0.00
2014-10-21,75.4,56.6,45.0,54.2,47.6,39.8,90,73,45,29.87,29.70,5,1,0,0.00
2014-10-22,56.1,53.7,50.4,53.8,51.4,48.6,97,92,84,29.83,29.64,11,4,0,1.06
2014-10-23,56.3,51.9,50.4,53.4,48.8,45.8,95,89,81,29.69,29.60,9,3,0,0.59
2014-10-24,73.9,56.9,46.6,48.5,44.2,38.8,89,65,35,29.75,29.64,12,2,0,0.00
2014-10-25,74.7,57.5,39.2,44.5,40.1,32.9,79,55,32,29.79,29.47,7,2,0,0.00
2014-10-26,68.7,57.8,47.1,45.4,38.2,34.5,78,50,31,29.76,29.45,10,2,0,0.00
2014-10-27,72.5,53.9,41.2,38.4,36.3,33.7,83,55,26,29.94,29.76,8,1,0,0.00
2014-10-28,80.6,56.1,40.3,52.8,46.3,37.5,97,74,36,29.96,29.81,5,0,0,0.00
2014-10-29,75.9,56.9,46.4,62.4,50.4,37.1,99,83,35,29.86,29.74,7,1,0,0.03
2014-10-30,65.8,48.6,37.4,48.1,39.1,32.6,99,74,37,29.93,29.85,5,1,0,0.01
2014-10-31,55.4,46.9,34.2,42.0,37.1,31.7,96,71,50,29.93,29.76,7,2,0,0.00
2014-11-1,49.6,44.5,41.7,42.3,38.1,34.7,87,78,63,29.76,29.65,9,5,0,0.61
2014-11-2,52.7,43.7,38.5,34.7,26.2,18.1,76,52,31,29.99,29.66,14,5,0,0.00
2014-11-3,65.1,48.1,34.5,29.4,23.2,16.9,70,40,19,30.07,29.98,6,2,0,0.00
2014-11-4,74.3,58.5,48.6,38.3,28.9,22.5,56,35,15,30.07,29.92,8,1,0,0.00
2014-11-5,64.8,54.3,44.2,43.7,38.3,32.2,70,56,31,30.05,29.91,8,1,0,0.00
2014-11-6,49.8,48.0,45.9,49.0,45.8,37.4,99,93,67,30.03,29.50,4,0,0,0.56
2014-11-7,56.3,44.7,34.7,46.8,36.8,24.8,99,75,49,29.87,29.48,8,2,0,0.03
2014-11-8,53.1,40.7,28.8,30.2,26.1,22.5,77,58,35,29.97,29.83,6,1,0,0.00
2014-11-9,62.1,46.0,33.4,37.5,32.6,30.2,89,62,35,29.94,29.80,6,1,0,0.00
2014-11-10,67.8,45.2,30.2,43.6,33.6,29.2,98,70,29,30.09,29.94,4,0,0,0.00
2014-11-11,69.3,52.1,34.7,57.3,47.7,33.3,98,86,64,30.07,29.81,7,1,0,0.00
2014-11-12,73.6,56.2,44.1,61.5,49.8,30.4,99,81,52,30.00,29.77,6,1,0,0.00
2014-11-13,54.5,41.2,34.0,33.6,29.0,25.1,95,64,37,30.04,29.90,4,1,0,0.21
2014-11-14,46.4,36.4,26.4,34.1,22.4,13.9,96,61,29,30.10,29.87,8,2,0,0.05
2014-11-15,47.7,32.0,22.6,21.4,17.8,13.9,83,59,27,30.29,30.10,5,1,0,0.00
2014-11-16,43.9,35.6,22.6,32.9,25.1,17.2,83,66,50,30.31,30.02,3,0,0,0.02
2014-11-17,46.9,41.8,38.1,46.6,40.4,33.5,99,95,82,30.01,29.41,4,1,0,1.54
2014-11-18,42.1,29.7,22.3,36.7,9.9,1.4,81,45,25,30.04,29.52,16,6,0,0.00
2014-11-19,37.2,26.8,19.4,13.3,5.9,2.2,57,41,25,30.20,29.97,11,3,0,0.00
2014-11-20,48.4,33.5,21.0,24.0,16.5,6.1,82,52,34,29.97,29.75,11,3,0,0.00
2014-11-21,40.6,29.3,19.9,11.9,8.6,6.1,67,43,25,30.44,29.96,8,2,0,0.00
2014-11-22,45.7,32.8,16.5,21.1,14.3,9.4,76,49,25,30.43,30.11,8,2,0,0.00
2014-11-23,61.7,46.0,37.9,34.9,25.4,21.0,65,46,26,30.13,29.88,6,1,0,0.02
2014-11-24,75.2,64.1,46.6,65.0,58.0,36.6,98,81,64,29.88,29.45,10,4,0,0.54
2014-11-25,65.1,53.1,39.4,58.8,37.1,27.8,80,56,35,30.08,29.63,9,2,0,0.00
2014-11-26,46.4,37.7,33.1,35.8,33.0,29.7,97,84,52,30.12,29.70,8,3,0,1.45
2014-11-27,40.3,34.9,28.6,36.5,32.1,25.0,96,90,81,29.99,29.76,5,1,0,0.37
2014-11-28,40.6,29.3,19.4,26.1,19.3,12.2,91,68,38,30.20,29.99,8,2,0,0.03
2014-11-29,37.4,28.3,16.5,23.0,17.3,12.3,87,65,45,30.29,30.13,5,0,0,0.01
2014-11-30,52.9,43.4,32.7,37.6,32.9,23.4,88,67,52,30.12,29.98,5,0,0,0.03
2014-12-1,67.3,49.5,39.7,51.2,39.5,27.4,86,69,55,30.39,29.98,10,2,0,0.08
2014-12-2,41.4,37.9,33.8,40.6,28.4,17.1,97,70,48,30.54,30.20,7,3,0,0.10
2014-12-3,44.8,42.0,38.1,43.8,39.8,28.5,98,92,67,30.19,29.88,8,2,0,0.12
2014-12-4,48.0,36.7,27.3,30.0,23.6,18.4,86,61,37,30.44,30.13,6,1,0,0.00
2014-12-5,40.6,36.5,28.6,38.8,28.6,19.4,97,74,55,30.50,30.26,7,2,0,0.51
2014-12-6,46.4,42.8,39.6,45.9,42.1,38.8,98,97,95,30.25,29.98,8,1,0,1.09
2014-12-7,44.2,37.2,28.0,38.9,20.3,3.0,96,55,27,30.54,30.11,16,5,0,0.03
2014-12-8,34.5,28.2,22.5,27.7,13.5,-2.5,76,55,27,30.60,30.25,8,4,0,0.00
2014-12-9,42.4,39.0,34.5,41.1,36.7,27.7,96,92,76,30.25,29.58,11,4,0,1.27
2014-12-10,40.6,36.7,31.8,37.3,31.7,25.0,90,82,71,29.59,29.50,9,4,0,0.02
2014-12-11,38.7,33.1,30.4,28.5,26.6,24.0,84,77,64,29.79,29.53,9,3,0,0.00
2014-12-12,41.5,34.7,30.4,27.3,24.0,21.8,83,65,51,29.91,29.79,8,3,0,0.00
2014-12-13,47.7,38.4,31.8,29.0,26.5,22.5,69,62,48,29.92,29.80,7,3,0,0.00
2014-12-14,48.7,40.6,34.9,32.4,29.8,27.0,73,65,52,29.90,29.77,8,2,0,0.00
2014-12-15,56.3,36.9,26.1,37.9,28.9,23.2,97,75,42,30.03,29.88,4,0,0,0.00
2014-12-16,52.0,40.6,27.9,45.5,37.9,26.9,98,91,70,30.02,29.73,5,1,0,0.19
2014-12-17,56.1,45.8,38.1,45.5,39.4,28.5,99,79,64,29.82,29.71,10,2,0,0.01
2014-12-18,45.3,38.3,33.8,28.2,25.6,23.4,70,60,45,29.93,29.80,9,4,0,0.00
2014-12-19,42.8,35.3,31.5,25.2,22.5,20.1,66,59,45,30.11,29.88,6,3,0,0.00
2014-12-20,33.1,31.7,30.9,21.2,20.7,20.2,65,63,60,30.22,30.11,4,1,0,0.00
2014-12-21,37.6,33.7,31.1,26.5,24.3,20.7,72,68,64,30.25,30.18,5,2,0,0.00
2014-12-22,44.2,38.8,34.2,43.0,33.4,26.1,96,81,72,30.25,30.04,4,1,0,0.02
2014-12-23,46.2,45.2,43.9,45.4,44.4,43.0,98,97,96,30.05,29.97,5,2,0,0.10
2014-12-24,54.7,48.0,45.5,54.4,47.7,45.2,99,99,99,29.98,29.41,5,1,0,1.10
2014-12-25,62.2,49.8,38.8,61.9,38.6,28.8,99,68,43,30.05,29.40,14,4,0,0.09
2014-12-26,54.3,39.8,30.9,30.6,28.1,25.3,83,65,38,30.18,30.05,6,1,0,0.00
2014-12-27,58.6,39.8,30.7,36.6,31.1,26.3,94,74,40,30.18,29.98,4,0,0,0.00
2014-12-28,55.8,45.5,38.3,46.0,38.5,31.5,92,77,65,29.99,29.78,6,2,0,0.10
2014-12-29,48.2,37.9,29.5,31.4,22.2,17.7,79,55,31,30.19,29.99,5,2,0,0.00
2014-12-30,38.5,30.0,22.6,19.1,14.7,10.5,64,53,40,30.33,30.18,6,1,0,0.00
2014-12-31,36.5,25.0,17.2,13.8,9.4,6.2,74,53,31,30.30,30.11,8,1,0,0.00
2015-1-1,40.1,29.0,16.2,17.7,11.3,7.2,69,49,29,30.11,29.89,10,2,0,0.00
2015-1-2,45.3,33.6,24.6,19.7,17.8,16.3,75,53,34,30.38,29.94,10,1,0,0.00